,,,PA_Meas_PMT16A,,PR_Meas_QMR101_102,,RH_Meas_QMH101,,SR_Meas_QMS101,,TA_Meas_QMH101,,GenWind,,GenWind,
date,time,status,PA,status,PR,status,RH,status,SR,status,TA,status,DirAvg,status,SpdAvg,
2011-07-25, 00:00:04,VALID,999.815,VALID,0,VALID,89.3505,VALID,0,VALID,22.0642,VALID,27,VALID,0.390234,
2011-07-25, 00:01:04,VALID,999.794,VALID,0,VALID,89.2284,VALID,0,VALID,22.0252,VALID,27,VALID,0.448438,
2011-07-25, 00:02:04,VALID,999.792,VALID,0,VALID,89.1445,VALID,0,VALID,21.9667,VALID,27,VALID,0.548437,
2011-07-25, 00:03:04,VALID,999.798,VALID,0,VALID,89.1903,VALID,0,VALID,21.9277,VALID,27,VALID,0.226953,
2011-07-25, 00:04:04,VALID,999.762,VALID,0,VALID,89.4497,VALID,0,VALID,21.9082,VALID,27,VALID,0.407422,
2011-07-25, 00:05:04,VALID,999.739,VALID,0,VALID,89.6862,VALID,0,VALID,21.9277,VALID,27,VALID,0.657812,
2011-07-25, 00:06:04,VALID,999.745,VALID,0,VALID,89.7091,VALID,0,VALID,21.9277,VALID,27,VALID,0.642969,
2011-07-25, 00:07:04,VALID,999.74,VALID,0,VALID,89.6023,VALID,0,VALID,21.9277,VALID,27,VALID,0.600781,
2011-07-25, 00:08:04,VALID,999.728,VALID,0,VALID,89.4878,VALID,0,VALID,21.9472,VALID,27,VALID,0.637891,
2011-07-25, 00:09:04,VALID,999.765,VALID,0,VALID,89.5183,VALID,0,VALID,21.9667,VALID,27,VALID,0.637109,
2011-07-25, 00:10:04,VALID,999.752,VALID,0,VALID,89.236,VALID,0,VALID,21.9277,VALID,27,VALID,0.550391,
2011-07-25, 00:11:04,VALID,999.729,VALID,0,VALID,89.2055,VALID,0,VALID,21.9082,VALID,11,VALID,0.680859,
2011-07-25, 00:12:04,VALID,999.774,VALID,0,VALID,89.2894,VALID,0,VALID,21.8887,VALID,11,VALID,0.36875,
2011-07-25, 00:13:04,VALID,999.782,VALID,0,VALID,89.6404,VALID,0,VALID,21.9082,VALID,11,VALID,0.55,
2011-07-25, 00:14:04,VALID,999.777,VALID,0,VALID,89.6862,VALID,0,VALID,21.9277,VALID,11,VALID,0.660156,
2011-07-25, 00:15:04,VALID,999.796,VALID,0,VALID,89.7243,VALID,0,VALID,21.9472,VALID,24,VALID,0.744922,
2011-07-25, 00:16:04,VALID,999.803,VALID,0,VALID,89.7625,VALID,0,VALID,21.9472,VALID,24,VALID,0.724219,
2011-07-25, 00:17:04,VALID,999.811,VALID,0,VALID,89.8464,VALID,0,VALID,21.9667,VALID,24,VALID,0.742969,
2011-07-25, 00:18:04,VALID,999.768,VALID,0,VALID,89.5641,VALID,0,VALID,21.9082,VALID,33,VALID,0.878906,
2011-07-25, 00:19:04,VALID,999.74,VALID,0,VALID,89.4573,VALID,0,VALID,21.8496,VALID,39,VALID,1.02852,
2011-07-25, 00:20:04,VALID,999.738,VALID,0,VALID,89.7396,VALID,0,VALID,21.8106,VALID,46,VALID,0.859375,
2011-07-25, 00:21:04,VALID,999.698,VALID,0,VALID,90.1287,VALID,0,VALID,21.8106,VALID,53,VALID,1.05352,
2011-07-25, 00:22:04,VALID,999.685,VALID,0,VALID,90.3957,VALID,0,VALID,21.8496,VALID,66,VALID,1.16406,
2011-07-25, 00:23:04,VALID,999.648,VALID,0,VALID,90.3957,VALID,0,VALID,21.8301,VALID,76,VALID,1.29961,
2011-07-25, 00:24:04,VALID,999.637,VALID,0,VALID,90.2355,VALID,0,VALID,21.7911,VALID,82,VALID,1.19297,
2011-07-25, 00:25:04,VALID,999.597,VALID,0,VALID,90.1058,VALID,0,VALID,21.7521,VALID,88,VALID,1.18945,
2011-07-25, 00:26:04,VALID,999.615,VALID,0,VALID,90.06,VALID,0,VALID,21.7538,VALID,88,VALID,1.11641,
2011-07-25, 00:27:04,VALID,999.607,VALID,0,VALID,90.0143,VALID,0,VALID,21.6936,VALID,86,VALID,0.815234,
2011-07-25, 00:28:04,VALID,999.611,VALID,0,VALID,89.9914,VALID,0,VALID,21.6741,VALID,71,VALID,0.878906,
2011-07-25, 00:29:04,VALID,999.69,VALID,0,VALID,90.0524,VALID,0,VALID,21.6546,VALID,88,VALID,0.944922,
2011-07-25, 00:30:04,VALID,999.69,VALID,0,VALID,90.0906,VALID,0,VALID,21.6351,VALID,92,VALID,0.671484,
2011-07-25, 00:31:04,VALID,999.649,VALID,0,VALID,90.1821,VALID,0,VALID,21.6156,VALID,80,VALID,0.685547,
2011-07-25, 00:32:04,VALID,999.653,VALID,0,VALID,90.2203,VALID,0,VALID,21.6351,VALID,79,VALID,0.533203,
2011-07-25, 00:33:04,VALID,999.642,VALID,0,VALID,90.1592,VALID,0,VALID,21.6156,VALID,68,VALID,0.497656,
2011-07-25, 00:34:04,VALID,999.623,VALID,0,VALID,90.1897,VALID,0,VALID,21.5961,VALID,68,VALID,0.261328,
2011-07-25, 00:35:04,VALID,999.633,VALID,0,VALID,90.1745,VALID,0,VALID,21.5571,VALID,68,VALID,0.453125,
2011-07-25, 00:36:04,VALID,999.613,VALID,0,VALID,90.1745,VALID,0,VALID,21.5376,VALID,68,VALID,0.633203,
2011-07-25, 00:37:04,VALID,999.6,VALID,0,VALID,90.2737,VALID,0,VALID,21.5376,VALID,68,VALID,0.711719,
2011-07-25, 00:38:04,VALID,999.603,VALID,0,VALID,90.3118,VALID,0,VALID,21.5571,VALID,68,VALID,0.694141,
2011-07-25, 00:39:04,VALID,999.64,VALID,0,VALID,90.2813,VALID,0,VALID,21.5766,VALID,68,VALID,0.588672,
2011-07-25, 00:40:04,VALID,999.589,VALID,0,VALID,90.1287,VALID,0,VALID,21.5961,VALID,68,VALID,0.532422,
2011-07-25, 00:41:04,VALID,999.573,VALID,0,VALID,90.1516,VALID,0,VALID,21.6156,VALID,68,VALID,0.483984,
2011-07-25, 00:42:04,VALID,999.551,VALID,0,VALID,90.144,VALID,0,VALID,21.6741,VALID,68,VALID,0.395312,
2011-07-25, 00:43:04,VALID,999.517,VALID,0,VALID,90.1287,VALID,0,VALID,21.7343,VALID,68,VALID,0.407813,
2011-07-25, 00:44:04,VALID,999.489,VALID,0,VALID,90.2203,VALID,0,VALID,21.7716,VALID,68,VALID,0.433594,
2011-07-25, 00:45:04,VALID,999.486,VALID,0,VALID,90.2203,VALID,0,VALID,21.8285,VALID,94,VALID,1.01602,
2011-07-25, 00:46:04,VALID,999.497,VALID,0,VALID,90.144,VALID,0,VALID,21.9082,VALID,95,VALID,0.60625,
2011-07-25, 00:47:04,VALID,999.465,VALID,0,VALID,89.9456,VALID,0,VALID,21.9472,VALID,95,VALID,0.576563,
2011-07-25, 00:48:04,VALID,999.5,VALID,0,VALID,89.7854,VALID,0,VALID,21.9862,VALID,95,VALID,0.391406,
2011-07-25, 00:49:04,VALID,999.488,VALID,0,VALID,89.6633,VALID,0,VALID,21.9862,VALID,95,VALID,0.229297,
2011-07-25, 00:50:04,VALID,999.509,VALID,0,VALID,89.5717,VALID,0,VALID,21.9862,VALID,91,VALID,0.482812,
2011-07-25, 00:51:04,VALID,999.537,VALID,0,VALID,89.4649,VALID,0,VALID,21.9862,VALID,72,VALID,0.475781,
2011-07-25, 00:52:04,VALID,999.511,VALID,0,VALID,89.2818,VALID,0,VALID,21.9667,VALID,72,VALID,0.357422,
2011-07-25, 00:53:04,VALID,999.53,VALID,0,VALID,89.1979,VALID,0,VALID,21.9082,VALID,72,VALID,0.526172,
2011-07-25, 00:54:04,VALID,999.495,VALID,0,VALID,89.3657,VALID,0,VALID,21.8887,VALID,72,VALID,0.645703,
2011-07-25, 00:55:04,VALID,999.488,VALID,0,VALID,89.4649,VALID,0,VALID,21.8887,VALID,72,VALID,0.666016,
2011-07-25, 00:56:04,VALID,999.498,VALID,0,VALID,89.5412,VALID,0,VALID,21.8285,VALID,72,VALID,0.548437,
2011-07-25, 00:57:04,VALID,999.498,VALID,0,VALID,89.6557,VALID,0,VALID,21.8285,VALID,72,VALID,0.433984,
2011-07-25, 00:58:04,VALID,999.51,VALID,0,VALID,89.7091,VALID,0,VALID,21.809,VALID,72,VALID,0.462109,
2011-07-25, 00:59:04,VALID,999.526,VALID,0,VALID,89.5336,VALID,0,VALID,21.7716,VALID,29,VALID,1.03203,
2011-07-25, 01:00:04,VALID,999.501,VALID,0,VALID,89.6251,VALID,0,VALID,21.7521,VALID,13,VALID,1.12656,
2011-07-25, 01:01:04,VALID,999.478,VALID,0,VALID,89.5641,VALID,0,VALID,21.692,VALID,11,VALID,1.06836,
2011-07-25, 01:02:04,VALID,999.487,VALID,0,VALID,89.7243,VALID,0,VALID,21.6546,VALID,4,VALID,0.633594,
2011-07-25, 01:03:04,VALID,999.425,VALID,0,VALID,89.6633,VALID,0,VALID,21.5961,VALID,4,VALID,0.457031,
2011-07-25, 01:04:04,VALID,999.451,VALID,0,VALID,89.8617,VALID,0,VALID,21.5555,VALID,4,VALID,0.412891,
2011-07-25, 01:05:04,VALID,999.453,VALID,0,VALID,89.9532,VALID,0,VALID,21.5571,VALID,4,VALID,0.439844,
2011-07-25, 01:06:04,VALID,999.427,VALID,0,VALID,90.0677,VALID,0,VALID,21.5181,VALID,4,VALID,0.789063,
2011-07-25, 01:07:04,VALID,999.443,VALID,0,VALID,90.2279,VALID,0,VALID,21.5165,VALID,4,VALID,0.694141,
2011-07-25, 01:08:04,VALID,999.429,VALID,0,VALID,90.205,VALID,0,VALID,21.5181,VALID,15,VALID,0.710156,
2011-07-25, 01:09:04,VALID,999.396,VALID,0,VALID,90.2126,VALID,0,VALID,21.4986,VALID,27,VALID,0.822266,
2011-07-25, 01:10:04,VALID,999.398,VALID,0,VALID,90.4034,VALID,0,VALID,21.5181,VALID,27,VALID,0.971484,
2011-07-25, 01:11:04,VALID,999.429,VALID,0,VALID,90.4186,VALID,0,VALID,21.5181,VALID,27,VALID,0.745313,
2011-07-25, 01:12:04,VALID,999.428,VALID,0,VALID,90.411,VALID,0,VALID,21.5181,VALID,27,VALID,0.802344,
2011-07-25, 01:13:04,VALID,999.415,VALID,0,VALID,90.3728,VALID,0,VALID,21.4791,VALID,41,VALID,1.01719,
2011-07-25, 01:14:04,VALID,999.438,VALID,0,VALID,90.5331,VALID,0,VALID,21.4986,VALID,43,VALID,1.07305,
2011-07-25, 01:15:04,VALID,999.44,VALID,0,VALID,90.762,VALID,0,VALID,21.497,VALID,43,VALID,0.858984,
2011-07-25, 01:16:04,VALID,999.412,VALID,0,VALID,90.8535,VALID,0,VALID,21.5376,VALID,43,VALID,1.03164,
2011-07-25, 01:17:04,VALID,999.399,VALID,0,VALID,90.9527,VALID,0,VALID,21.5571,VALID,43,VALID,1.09805,
2011-07-25, 01:18:04,VALID,999.343,VALID,0,VALID,90.9985,VALID,0,VALID,21.575,VALID,43,VALID,1.17891,
2011-07-25, 01:19:04,VALID,999.383,VALID,0,VALID,90.968,VALID,0,VALID,21.575,VALID,43,VALID,1.04648,
2011-07-25, 01:20:04,VALID,999.39,VALID,0,VALID,90.9832,VALID,0,VALID,21.5961,VALID,43,VALID,1.08164,
2011-07-25, 01:21:04,VALID,999.385,VALID,0,VALID,90.9069,VALID,0,VALID,21.6156,VALID,43,VALID,0.923828,
2011-07-25, 01:22:04,VALID,999.417,VALID,0,VALID,90.7696,VALID,0,VALID,21.6156,VALID,43,VALID,0.577734,
2011-07-25, 01:23:04,VALID,999.412,VALID,0,VALID,90.6628,VALID,0,VALID,21.5555,VALID,43,VALID,0.5125,
2011-07-25, 01:24:04,VALID,999.363,VALID,0,VALID,90.6246,VALID,0,VALID,21.5571,VALID,43,VALID,0.45,
2011-07-25, 01:25:04,VALID,999.324,VALID,0,VALID,90.6933,VALID,0,VALID,21.5766,VALID,43,VALID,0.771875,
2011-07-25, 01:26:04,VALID,999.338,VALID,0,VALID,90.7314,VALID,0,VALID,21.575,VALID,43,VALID,0.826953,
2011-07-25, 01:27:04,VALID,999.321,VALID,0,VALID,90.762,VALID,0,VALID,21.614,VALID,43,VALID,0.619922,
2011-07-25, 01:28:04,VALID,999.288,VALID,0,VALID,90.6551,VALID,0,VALID,21.6156,VALID,43,VALID,0.521094,
2011-07-25, 01:29:04,VALID,999.278,VALID,0,VALID,90.5941,VALID,0,VALID,21.6156,VALID,43,VALID,0.842578,
2011-07-25, 01:30:04,VALID,999.261,VALID,0,VALID,90.6017,VALID,0,VALID,21.5945,VALID,43,VALID,0.854688,
2011-07-25, 01:31:04,VALID,999.299,VALID,0,VALID,90.5788,VALID,0,VALID,21.5945,VALID,43,VALID,0.769531,
2011-07-25, 01:32:04,VALID,999.302,VALID,0,VALID,90.6399,VALID,0,VALID,21.5945,VALID,43,VALID,0.737109,
2011-07-25, 01:33:04,VALID,999.302,VALID,0,VALID,90.5865,VALID,0,VALID,21.5766,VALID,43,VALID,0.649219,
2011-07-25, 01:34:04,VALID,999.274,VALID,0,VALID,90.617,VALID,0,VALID,21.5555,VALID,17,VALID,0.861328,
2011-07-25, 01:35:04,VALID,999.261,VALID,0,VALID,90.7467,VALID,0,VALID,21.575,VALID,12,VALID,0.997266,
2011-07-25, 01:36:04,VALID,999.231,VALID,0,VALID,90.7467,VALID,0,VALID,21.536,VALID,12,VALID,0.902734,
2011-07-25, 01:37:04,VALID,999.215,VALID,0,VALID,90.762,VALID,0,VALID,21.5766,VALID,12,VALID,0.686328,
2011-07-25, 01:38:04,VALID,999.215,VALID,0,VALID,90.7696,VALID,0,VALID,21.5766,VALID,12,VALID,0.177734,
2011-07-25, 01:39:04,VALID,999.198,VALID,0,VALID,90.7009,VALID,0,VALID,21.5376,VALID,12,VALID,0.0554687,
2011-07-25, 01:40:04,VALID,999.207,VALID,0,VALID,90.6704,VALID,0,VALID,21.5376,VALID,12,VALID,0.490625,
2011-07-25, 01:41:04,VALID,999.231,VALID,0,VALID,90.6323,VALID,0,VALID,21.4986,VALID,12,VALID,0.142578,
2011-07-25, 01:42:04,VALID,999.226,VALID,0,VALID,90.7162,VALID,0,VALID,21.4986,VALID,12,VALID,0.0679687,
2011-07-25, 01:43:04,VALID,999.236,VALID,0,VALID,90.7543,VALID,0,VALID,21.458,VALID,12,VALID,0.0433594,
2011-07-25, 01:44:04,VALID,999.208,VALID,0,VALID,90.6857,VALID,0,VALID,21.4206,VALID,12,VALID,0,
2011-07-25, 01:45:04,VALID,999.254,VALID,0,VALID,90.7772,VALID,0,VALID,21.4206,VALID,12,VALID,0.605078,
2011-07-25, 01:46:04,VALID,999.261,VALID,0,VALID,90.9451,VALID,0,VALID,21.4401,VALID,12,VALID,0.790625,
2011-07-25, 01:47:04,VALID,999.255,VALID,0,VALID,91.0061,VALID,0,VALID,21.4596,VALID,12,VALID,0.350391,
2011-07-25, 01:48:04,VALID,999.249,VALID,0,VALID,90.9909,VALID,0,VALID,21.4206,VALID,12,VALID,0.2625,
2011-07-25, 01:49:04,VALID,999.234,VALID,0,VALID,91.1358,VALID,0,VALID,21.4791,VALID,12,VALID,0.475781,
2011-07-25, 01:50:04,VALID,999.224,VALID,0,VALID,91.235,VALID,0,VALID,21.497,VALID,31,VALID,0.627344,
2011-07-25, 01:51:04,VALID,999.225,VALID,0,VALID,91.3037,VALID,0,VALID,21.5766,VALID,77,VALID,0.469922,
2011-07-25, 01:52:04,VALID,999.226,VALID,0,VALID,91.0977,VALID,0,VALID,21.5961,VALID,77,VALID,0.378516,
2011-07-25, 01:53:04,VALID,999.197,VALID,0,VALID,90.968,VALID,0,VALID,21.5961,VALID,77,VALID,0.432813,
2011-07-25, 01:54:04,VALID,999.173,VALID,0,VALID,90.8688,VALID,0,VALID,21.6156,VALID,77,VALID,0.266406,
2011-07-25, 01:55:04,VALID,999.194,VALID,0,VALID,90.7849,VALID,0,VALID,21.6156,VALID,77,VALID,0.359766,
2011-07-25, 01:56:04,VALID,999.173,VALID,0,VALID,90.6628,VALID,0,VALID,21.6351,VALID,77,VALID,0.417578,
2011-07-25, 01:57:04,VALID,999.176,VALID,0,VALID,90.6017,VALID,0,VALID,21.6351,VALID,75,VALID,0.596094,
2011-07-25, 01:58:04,VALID,999.147,VALID,0,VALID,90.4949,VALID,0,VALID,21.6546,VALID,108,VALID,0.989844,
2011-07-25, 01:59:04,VALID,999.133,VALID,0,VALID,90.0448,VALID,0,VALID,21.7521,VALID,114,VALID,1.13516,
2011-07-25, 02:00:04,VALID,999.136,VALID,0,VALID,88.9232,VALID,0,VALID,21.9455,VALID,111,VALID,1.4,
2011-07-25, 02:01:04,VALID,999.135,VALID,0,VALID,87.2447,VALID,0,VALID,22.1812,VALID,117,VALID,1.43633,
2011-07-25, 02:02:04,VALID,999.149,VALID,0,VALID,85.7646,VALID,0,VALID,22.3975,VALID,117,VALID,1.5668,
2011-07-25, 02:03:04,VALID,999.119,VALID,0,VALID,84.5438,VALID,0,VALID,22.5714,VALID,124,VALID,1.54023,
2011-07-25, 02:04:04,VALID,999.09,VALID,0,VALID,83.4528,VALID,0,VALID,22.7469,VALID,112,VALID,1.74531,
2011-07-25, 02:05:04,VALID,999.107,VALID,0,VALID,82.8119,VALID,0,VALID,22.8835,VALID,118,VALID,1.3793,
2011-07-25, 02:06:04,VALID,999.089,VALID,0,VALID,82.5754,VALID,0,VALID,22.9615,VALID,111,VALID,1.45977,
2011-07-25, 02:07:04,VALID,999.092,VALID,0,VALID,82.2168,VALID,0,VALID,23.0006,VALID,111,VALID,1.73086,
2011-07-25, 02:08:04,VALID,999.071,VALID,0,VALID,81.6446,VALID,0,VALID,23.0591,VALID,114,VALID,1.52773,
2011-07-25, 02:09:04,VALID,999.057,VALID,0,VALID,81.1105,VALID,0,VALID,23.1371,VALID,122,VALID,1.72148,
2011-07-25, 02:10:04,VALID,999.078,VALID,0,VALID,80.6756,VALID,0,VALID,23.1939,VALID,124,VALID,1.3332,
2011-07-25, 02:11:04,VALID,999.033,VALID,0,VALID,80.6985,VALID,0,VALID,23.2737,VALID,117,VALID,1.22187,
2011-07-25, 02:12:04,VALID,999.036,VALID,0,VALID,81.4157,VALID,0,VALID,23.2737,VALID,103,VALID,1.50586,
2011-07-25, 02:13:04,VALID,999.028,VALID,0,VALID,81.9803,VALID,0,VALID,23.1744,VALID,116,VALID,1.18984,
2011-07-25, 02:14:04,VALID,999.017,VALID,0,VALID,81.9269,VALID,0,VALID,23.0981,VALID,121,VALID,1.59258,
2011-07-25, 02:15:04,VALID,999.011,VALID,0,VALID,80.9274,VALID,0,VALID,23.1354,VALID,123,VALID,1.90117,
2011-07-25, 02:16:04,VALID,999.021,VALID,0,VALID,80.6298,VALID,0,VALID,23.2347,VALID,128,VALID,1.51211,
2011-07-25, 02:17:04,VALID,999.012,VALID,0,VALID,80.4772,VALID,0,VALID,23.2719,VALID,136,VALID,1.33203,
2011-07-25, 02:18:04,VALID,999.02,VALID,0,VALID,80.2789,VALID,0,VALID,23.3127,VALID,153,VALID,1.82187,
2011-07-25, 02:19:04,VALID,998.989,VALID,0,VALID,79.9355,VALID,0,VALID,23.3713,VALID,140,VALID,1.40742,
2011-07-25, 02:20:04,VALID,998.933,VALID,0,VALID,79.5159,VALID,0,VALID,23.4298,VALID,128,VALID,1.66641,
2011-07-25, 02:21:04,VALID,998.955,VALID,0,VALID,79.3709,VALID,0,VALID,23.4688,VALID,124,VALID,1.16562,
2011-07-25, 02:22:04,VALID,998.961,VALID,0,VALID,79.4778,VALID,0,VALID,23.4688,VALID,145,VALID,1.13437,
2011-07-25, 02:23:04,VALID,998.948,VALID,0,VALID,79.7295,VALID,0,VALID,23.4085,VALID,141,VALID,1.02461,
2011-07-25, 02:24:04,VALID,998.94,VALID,0,VALID,79.9966,VALID,0,VALID,23.3305,VALID,135,VALID,1.10156,
2011-07-25, 02:25:04,VALID,998.932,VALID,0,VALID,80.2331,VALID,0,VALID,23.3127,VALID,137,VALID,0.817578,
2011-07-25, 02:26:04,VALID,998.968,VALID,0,VALID,80.4772,VALID,0,VALID,23.2542,VALID,136,VALID,0.6875,
2011-07-25, 02:27:04,VALID,998.929,VALID,0,VALID,80.6832,VALID,0,VALID,23.1957,VALID,136,VALID,0.807031,
2011-07-25, 02:28:04,VALID,998.923,VALID,0,VALID,80.7214,VALID,0,VALID,23.1566,VALID,132,VALID,0.813672,
2011-07-25, 02:29:04,VALID,998.924,VALID,0,VALID,80.8282,VALID,0,VALID,23.1371,VALID,132,VALID,0.636328,
2011-07-25, 02:30:04,VALID,998.905,VALID,0,VALID,80.8816,VALID,0,VALID,23.1159,VALID,132,VALID,0.766406,
2011-07-25, 02:31:04,VALID,998.901,VALID,0,VALID,80.9732,VALID,0,VALID,23.0964,VALID,132,VALID,0.901563,
2011-07-25, 02:32:04,VALID,998.895,VALID,0,VALID,81.1257,VALID,0,VALID,23.0786,VALID,132,VALID,0.640625,
2011-07-25, 02:33:04,VALID,998.915,VALID,0,VALID,81.3928,VALID,0,VALID,23.0378,VALID,132,VALID,0.599609,
2011-07-25, 02:34:04,VALID,998.91,VALID,0,VALID,81.6674,VALID,0,VALID,22.9581,VALID,124,VALID,1.14688,
2011-07-25, 02:35:04,VALID,998.906,VALID,0,VALID,81.8658,VALID,0,VALID,22.9403,VALID,108,VALID,1.15391,
2011-07-25, 02:36:04,VALID,998.896,VALID,0,VALID,81.9803,VALID,0,VALID,22.9403,VALID,114,VALID,1.13437,
2011-07-25, 02:37:04,VALID,998.899,VALID,0,VALID,82.2549,VALID,0,VALID,22.9013,VALID,102,VALID,1.05469,
2011-07-25, 02:38:04,VALID,998.936,VALID,0,VALID,82.6898,VALID,0,VALID,22.8818,VALID,119,VALID,1.13672,
2011-07-25, 02:39:04,VALID,998.954,VALID,0,VALID,83.5215,VALID,0,VALID,22.8623,VALID,106,VALID,1.225,
2011-07-25, 02:40:04,VALID,998.918,VALID,0,VALID,83.9945,VALID,0,VALID,22.8215,VALID,101,VALID,1.3375,
2011-07-25, 02:41:04,VALID,998.965,VALID,0,VALID,83.964,VALID,0,VALID,22.8037,VALID,95,VALID,0.669922,
2011-07-25, 02:42:04,VALID,998.964,VALID,0,VALID,84.0632,VALID,0,VALID,22.7647,VALID,108,VALID,0.644141,
2011-07-25, 02:43:04,VALID,998.903,VALID,0,VALID,84.2234,VALID,0,VALID,22.7062,VALID,110,VALID,0.594141,
2011-07-25, 02:44:04,VALID,998.87,VALID,0,VALID,84.2234,VALID,0,VALID,22.6655,VALID,125,VALID,1.25312,
2011-07-25, 02:45:04,VALID,998.885,VALID,0,VALID,83.613,VALID,0,VALID,22.7647,VALID,136,VALID,1.32031,
2011-07-25, 02:46:04,VALID,998.87,VALID,0,VALID,83.1629,VALID,0,VALID,22.864,VALID,135,VALID,1.30156,
2011-07-25, 02:47:04,VALID,998.851,VALID,0,VALID,82.7203,VALID,0,VALID,22.903,VALID,132,VALID,1.13906,
2011-07-25, 02:48:04,VALID,998.872,VALID,0,VALID,82.4533,VALID,0,VALID,22.8818,VALID,138,VALID,0.785547,
2011-07-25, 02:49:04,VALID,998.923,VALID,0,VALID,82.2015,VALID,0,VALID,22.9225,VALID,153,VALID,1.31719,
2011-07-25, 02:50:04,VALID,998.92,VALID,0,VALID,81.7132,VALID,0,VALID,22.9811,VALID,140,VALID,1.03437,
2011-07-25, 02:51:04,VALID,998.916,VALID,0,VALID,81.5912,VALID,0,VALID,23.0201,VALID,140,VALID,0.912109,
2011-07-25, 02:52:04,VALID,998.888,VALID,0,VALID,81.3012,VALID,0,VALID,23.0591,VALID,129,VALID,1.45781,
2011-07-25, 02:53:04,VALID,998.906,VALID,0,VALID,80.935,VALID,0,VALID,23.1371,VALID,127,VALID,1.23359,
2011-07-25, 02:54:04,VALID,998.892,VALID,0,VALID,80.7138,VALID,0,VALID,23.1549,VALID,128,VALID,1.35664,
2011-07-25, 02:55:04,VALID,998.866,VALID,0,VALID,80.5917,VALID,0,VALID,23.1939,VALID,143,VALID,1.24219,
2011-07-25, 02:56:04,VALID,998.908,VALID,0,VALID,80.462,VALID,0,VALID,23.2347,VALID,143,VALID,0.975781,
2011-07-25, 02:57:04,VALID,998.927,VALID,0,VALID,80.3323,VALID,0,VALID,23.2737,VALID,153,VALID,1.41797,
2011-07-25, 02:58:04,VALID,998.933,VALID,0,VALID,80.2636,VALID,0,VALID,23.3127,VALID,152,VALID,1.21602,
2011-07-25, 02:59:04,VALID,998.917,VALID,0,VALID,80.2255,VALID,0,VALID,23.3305,VALID,146,VALID,0.865234,
2011-07-25, 03:00:04,VALID,998.941,VALID,0,VALID,80.3323,VALID,0,VALID,23.3127,VALID,145,VALID,0.956641,
2011-07-25, 03:01:04,VALID,998.984,VALID,0,VALID,80.3628,VALID,0,VALID,23.2915,VALID,127,VALID,0.9875,
2011-07-25, 03:02:04,VALID,998.91,VALID,0,VALID,80.5001,VALID,0,VALID,23.2542,VALID,133,VALID,1.18789,
2011-07-25, 03:03:04,VALID,998.911,VALID,0,VALID,80.5306,VALID,0,VALID,23.2329,VALID,130,VALID,1.08164,
2011-07-25, 03:04:04,VALID,998.891,VALID,0,VALID,80.5459,VALID,0,VALID,23.2347,VALID,127,VALID,1.04648,
2011-07-25, 03:05:04,VALID,998.884,VALID,0,VALID,80.6146,VALID,0,VALID,23.2347,VALID,121,VALID,1.18828,
2011-07-25, 03:06:04,VALID,998.904,VALID,0,VALID,80.7977,VALID,0,VALID,23.1957,VALID,124,VALID,1.14492,
2011-07-25, 03:07:04,VALID,998.925,VALID,0,VALID,80.9274,VALID,0,VALID,23.1566,VALID,122,VALID,0.946094,
2011-07-25, 03:08:04,VALID,998.963,VALID,0,VALID,81.202,VALID,0,VALID,23.1176,VALID,122,VALID,0.569531,
2011-07-25, 03:09:04,VALID,998.976,VALID,0,VALID,81.3852,VALID,0,VALID,23.0769,VALID,119,VALID,0.742188,
2011-07-25, 03:10:04,VALID,999,VALID,0,VALID,81.6369,VALID,0,VALID,23.0786,VALID,119,VALID,0.601563,
2011-07-25, 03:11:04,VALID,999.002,VALID,0,VALID,81.8735,VALID,0,VALID,23.0396,VALID,54,VALID,0.724219,
2011-07-25, 03:12:04,VALID,998.992,VALID,0,VALID,82.5449,VALID,0,VALID,22.8818,VALID,38,VALID,1.21406,
2011-07-25, 03:13:04,VALID,999.022,VALID,0,VALID,83.5138,VALID,0,VALID,22.6867,VALID,38,VALID,1.22812,
2011-07-25, 03:14:04,VALID,999.032,VALID,0,VALID,84.4675,VALID,0,VALID,22.5128,VALID,38,VALID,1.12891,
2011-07-25, 03:15:04,VALID,998.988,VALID,0,VALID,85.0016,VALID,0,VALID,22.3568,VALID,42,VALID,0.808594,
2011-07-25, 03:16:04,VALID,999.004,VALID,0,VALID,85.5967,VALID,0,VALID,22.16,VALID,59,VALID,0.691016,
2011-07-25, 03:17:04,VALID,999.012,VALID,0,VALID,86.3063,VALID,0,VALID,22.043,VALID,38,VALID,0.7625,
2011-07-25, 03:18:04,VALID,999.023,VALID,0,VALID,86.6496,VALID,0,VALID,21.9845,VALID,38,VALID,0.524219,
2011-07-25, 03:19:04,VALID,998.987,VALID,0,VALID,86.8556,VALID,0,VALID,21.9472,VALID,38,VALID,0.763672,
2011-07-25, 03:20:04,VALID,998.99,VALID,0,VALID,86.9777,VALID,0,VALID,21.9277,VALID,66,VALID,0.974609,
2011-07-25, 03:21:04,VALID,998.947,VALID,0,VALID,87.0616,VALID,0,VALID,21.9065,VALID,56,VALID,1.14219,
2011-07-25, 03:22:04,VALID,998.939,VALID,0,VALID,86.9166,VALID,0,VALID,21.926,VALID,43,VALID,1.23359,
2011-07-25, 03:23:04,VALID,998.951,VALID,0,VALID,86.6877,VALID,0,VALID,21.9862,VALID,43,VALID,0.992578,
2011-07-25, 03:24:04,VALID,998.969,VALID,0,VALID,86.4207,VALID,0,VALID,21.9845,VALID,43,VALID,1.16797,
2011-07-25, 03:25:04,VALID,998.986,VALID,0,VALID,86.3063,VALID,0,VALID,22.004,VALID,43,VALID,1.11953,
2011-07-25, 03:26:04,VALID,999.041,VALID,0,VALID,86.2452,VALID,0,VALID,21.9667,VALID,43,VALID,1.0543,
2011-07-25, 03:27:04,VALID,999.038,VALID,0,VALID,86.4131,VALID,0,VALID,21.9277,VALID,43,VALID,0.986328,
2011-07-25, 03:28:04,VALID,999.033,VALID,0,VALID,86.6038,VALID,0,VALID,21.8675,VALID,43,VALID,0.810547,
2011-07-25, 03:29:04,VALID,999.008,VALID,0,VALID,86.8861,VALID,0,VALID,21.8301,VALID,43,VALID,0.852734,
2011-07-25, 03:30:04,VALID,998.97,VALID,0,VALID,87.1608,VALID,0,VALID,21.7911,VALID,43,VALID,0.460938,
2011-07-25, 03:31:04,VALID,999.021,VALID,0,VALID,87.26,VALID,0,VALID,21.77,VALID,43,VALID,0.477344,
2011-07-25, 03:32:04,VALID,998.992,VALID,0,VALID,87.2523,VALID,0,VALID,21.7716,VALID,43,VALID,0.445703,
2011-07-25, 03:33:04,VALID,999.009,VALID,0,VALID,87.3134,VALID,0,VALID,21.7115,VALID,43,VALID,0.664063,
2011-07-25, 03:34:04,VALID,998.994,VALID,0,VALID,87.3744,VALID,0,VALID,21.692,VALID,43,VALID,0.901563,
2011-07-25, 03:35:04,VALID,998.993,VALID,0,VALID,87.6414,VALID,0,VALID,21.6936,VALID,43,VALID,0.753906,
2011-07-25, 03:36:04,VALID,998.979,VALID,0,VALID,87.5804,VALID,0,VALID,21.6725,VALID,43,VALID,0.494922,
2011-07-25, 03:37:04,VALID,999.01,VALID,0,VALID,87.6796,VALID,0,VALID,21.6546,VALID,43,VALID,0.421484,
2011-07-25, 03:38:04,VALID,999.001,VALID,0,VALID,87.8322,VALID,0,VALID,21.653,VALID,43,VALID,0.216797,
2011-07-25, 03:39:04,VALID,999.038,VALID,0,VALID,87.9161,VALID,0,VALID,21.6741,VALID,43,VALID,0.308594,
2011-07-25, 03:40:04,VALID,998.999,VALID,0,VALID,88,VALID,0,VALID,21.6725,VALID,43,VALID,0.256641,
2011-07-25, 03:41:04,VALID,998.999,VALID,0,VALID,88.0382,VALID,0,VALID,21.692,VALID,43,VALID,0.261719,
2011-07-25, 03:42:04,VALID,998.976,VALID,0,VALID,88.0763,VALID,0,VALID,21.7521,VALID,43,VALID,0.333984,
2011-07-25, 03:43:04,VALID,998.993,VALID,0,VALID,87.9848,VALID,0,VALID,21.7911,VALID,43,VALID,0.535156,
2011-07-25, 03:44:04,VALID,998.999,VALID,0,VALID,87.8551,VALID,0,VALID,21.8106,VALID,43,VALID,0.595703,
2011-07-25, 03:45:04,VALID,999.059,VALID,0,VALID,87.7254,VALID,0,VALID,21.8106,VALID,43,VALID,0.603125,
2011-07-25, 03:46:04,VALID,999.052,VALID,0,VALID,87.7254,VALID,0,VALID,21.8106,VALID,43,VALID,0.516797,